Weather Roundup
Issued by NWS

Home | Current Version | Previous Version | Graphics & Text | Print | Product List | Glossary Off
Versions: 1 2 3 4 5 6 7 8 9 10 11 12 13 14 15 16 17 18 19 20 21 22 23 24 25 26 27 28 29 30 31 32 33 34 35 36 37 38 39 40 41 42 43 44 45 46 47 48 49 50

000
NZUS93 KARX 040159
HRRWXR

CURRENT HOURLY OBSERVATIONS ACROSS
MUCH OF THE UPPER MISSISSIPPI VALLEY
NATIONAL WEATHER SERVICE LA CROSSE WI
900 PM CDT SUN MAY 03 2015


...SOUTHEAST MINNESOTA...


CITY           SKY/WX    TMP DP  RH WIND       PRES   REMARKS
ROCHESTER      CLOUDY    62  58  86 NW8       29.89R
ROCHESTER/MAYO MOCLDY    61  56  84 N9G20     29.88R
WINONA         TSTM      61  57  88 CALM      29.86R
AUSTIN         CLOUDY    61  57  88 N13       29.90R
ALBERT LEA     CLOUDY    63  54  72 NE17G28   29.84R
DODGE CENTER   CLOUDY    61  54  77 NE9       29.89R
PRESTON        TSTM      58  56  92 NW6       29.87R
OWATONNA       CLOUDY    61  52  72 E14       29.84S
FARIBAULT      CLOUDY    61  52  72 N8        29.83F
$$

...ELSEWHERE IN MINNESOTA...


CITY           SKY/WX    TMP DP  RH WIND       PRES   REMARKS
MINNEAPOLIS    MOCLDY    63  46  54 N9        29.86R
INTNL FALLS    CLEAR     54  33  45 NW13      29.91R
DULUTH         PTCLDY    59  33  37 NW8       29.86R
RED WING       LGT RAIN  61  54  77 NE3       29.86R
REDWOOD FALLS  PTCLDY    64  40  41 N6        29.87R
MANKATO          N/A    N/A N/A N/A MISG        N/A
WORTHINGTON    CLEAR     63  36  36 N13       29.89R
FAIRMONT       CLOUDY    66  43  42 NE16      29.86R
$$

...SOUTHWEST WISCONSIN...


CITY           SKY/WX    TMP DP  RH WIND       PRES   REMARKS
LA CROSSE      TSTM      67  56  67 NW18      29.88R
PRAIRIE DU CHI PTCLDY    71  57  61 E8        29.81R
BOSCOBEL       MOCLDY    71  58  63 VRB5      29.84R
LONE ROCK      NOT AVBL
PLATTEVILLE    PTCLDY    65  60  82 E5        29.86R
FORT MC COY    CLOUDY    73  55  54 SW3       29.83R
VIROQUA        FAIR      69  56  64 S5        29.84R
WIS DELLS      NOT AVBL
$$

...ELSEWHERE IN WISCONSIN...


CITY           SKY/WX    TMP DP  RH WIND       PRES   REMARKS
MILWAUKEE      PTCLDY    66  53  63 S12G22    29.87F
MADISON        MOCLDY    66  55  67 S10       29.86R
GREEN BAY      CLEAR     69  53  56 S12       29.84R
EAU CLAIRE     LGT RAIN  59  54  83 E12       29.87R
BLACK RVR FLS  LGT RAIN  66  55  67 NW17G28   29.85R
MEDFORD        CLOUDY    60  54  81 N16       29.86R
WAUSAU         CLOUDY    67  52  58 N14G26    29.84R THUNDER
WIS RAPIDS     CLOUDY    71  53  52 S8        29.84R
MARSHFIELD     HVY RAIN  62  56  80 W23G35    29.88R
RICE LAKE      CLOUDY    61  46  57 E7        29.88R
$$

...NORTHEAST IOWA...


CITY           SKY/WX    TMP DP  RH WIND       PRES   REMARKS
DECORAH        CLOUDY    72  57  60 SE7       29.78S
MASON CITY     TSTM      64  60  87 E17       29.81F
CHARLES CITY   CLOUDY    73  57  56 S8        29.80R
OELWEIN        CLOUDY    75  57  53 S13       29.81R
$$

...ELSEWHERE IN IOWA...


CITY           SKY/WX    TMP DP  RH WIND       PRES   REMARKS
DES MOINES     CLOUDY    75  58  55 S5        29.78R
IOWA CITY      PTCLDY    73  57  57 S9        29.83R
FORT DODGE     MOCLDY    61  55  82 N8        29.83S
$$

...NORTHERN ILLINOIS...


CITY           SKY/WX    TMP DP  RH WIND       PRES   REMARKS
CHICAGO-OHARE  TSTM      62  58  86 SE10      29.93S
CHICAGO-MIDWAY LGT RAIN  69  59  70 SE8       29.95S
MOLINE         CLEAR     76  54  46 SW10      29.84R
ROCKFORD       PTCLDY    64  55  72 SE13G21   29.88F
PEORIA         PTCLDY    74  50  42 S9        29.90R
$$

NOTE: "FAIR" INDICATES FEW OR NO CLOUDS BELOW 12,000 FEET WITH NO
SIGNIFICANT WEATHER AND/OR OBSTRUCTIONS TO VISIBILITY. WIND
SPEEDS ARE IN MILES-PER-HOUR.



USA.gov is the U.S. government's official web portal to all federal, state and local government web resources and services.